Flag for Australia Weather past 2 weeks in Canberra, Australian Capital Territory, Australia

Now
34 °F

Clear.


Feels Like: 34 °F
Forecast: 37 / 63 °F
Wind: 2 mph from East

Location: Canberra Airport

Current Time: Aug 31, 2014 at 3:11:20 AM

Latest Report: Aug 31, 2014 at 2:30 AM


Visibility: 1 mi

Pressure: 30.18 "Hg

Humidity: 100%

Dew point: 34 °F

Location of CanberraLocation

Historic Weather in Canberra — Graph

°F

Canberra temperature yesterday

Maximum temperature yesterday: 63 °F (at 1:30 PM)
Minimum temperature yesterday: 34 °F (at 4:30 AM)
Average temperature yesterday: 48 °F

Past Weeks' High & Low Weather Summary

 TemperatureHumidityPressure
High63 °F (Aug 24, 1:30 PM)100% (Aug 16, 3:00 AM)30.48 "Hg (Aug 16, 3:00 AM)
Low30 °F (Aug 20, 5:30 AM)27% (Aug 20, 3:30 PM)29.74 "Hg (Aug 18, 12:30 AM)
Average47 °F78%30.23 "Hg
* Reported Aug 16 2:00 AM — Aug 31 2:00 AM, Canberra, Weather by CustomWeather, © 2014

Note: Actual official high and low records may vary slightly from our data, if they occured in-between our weather recording intervals... More about our weather records

Advertising

Canberra weather history for previous 24 hours

 ConditionsComfort  
Time TempWeatherWind HumidityBarometerVisibility
2:00 AM
Aug 31
36 °FChilly.5 mph100%30.18 "Hg0 mi
1:30 AM36 °FChilly.No wind100%30.18 "Hg0 mi
1:00 AM37 °FChilly.5 mph100%30.18 "Hg1 mi
12:00 AM37 °FClear.3 mph100%30.21 "HgN/A
11:00 PM
Aug 30
39 °FClear.No wind100%30.21 "HgN/A
10:30 PM39 °FClear.1 mph93%30.21 "HgN/A
10:00 PM43 °FPassing clouds.3 mph93%30.21 "HgN/A
9:30 PM43 °FMostly cloudy.No wind93%30.21 "HgN/A
9:00 PM45 °FPassing clouds.No wind87%30.21 "HgN/A
8:30 PM43 °FPassing clouds.5 mph93%30.21 "HgN/A
8:00 PM43 °FClear.6 mph87%30.21 "HgN/A
7:30 PM46 °FPassing clouds.1 mph82%30.21 "HgN/A
7:00 PM50 °FClear.6 mph76%30.21 "HgN/A
6:30 PM52 °FPassing clouds.3 mph77%30.21 "HgN/A
6:00 PM46 °FPassing clouds.7 mph71%30.18 "HgN/A
5:30 PM54 °FPassing clouds.7 mph58%30.18 "HgN/A
5:00 PM55 °FPassing clouds.9 mph59%30.18 "HgN/A
4:30 PM61 °FPassing clouds.9 mph48%30.18 "HgN/A
4:00 PM61 °FPassing clouds.10 mph48%30.18 "HgN/A
3:30 PM63 °FPassing clouds.8 mph45%30.18 "HgN/A
3:00 PM63 °FScattered clouds.9 mph45%30.18 "HgN/A
2:30 PM63 °FScattered clouds.7 mph45%30.18 "HgN/A
2:00 PM59 °FPassing clouds.6 mph51%30.21 "HgN/A
1:30 PM63 °FPassing clouds.6 mph49%30.21 "HgN/A
1:00 PM61 °FScattered clouds.10 mph48%30.24 "HgN/A
12:30 PM61 °FPassing clouds.8 mph48%30.24 "HgN/A
12:00 PM59 °FPassing clouds.8 mph55%30.27 "HgN/A
11:30 AM57 °FPassing clouds.8 mph55%30.27 "HgN/A
11:00 AM57 °FPassing clouds.13 mph55%30.27 "HgN/A
10:30 AM54 °FPassing clouds.8 mph58%30.30 "HgN/A
10:00 AM54 °FPassing clouds.8 mph58%30.30 "HgN/A
9:30 AM52 °FPassing clouds.15 mph62%30.30 "HgN/A
9:00 AM50 °FScattered clouds.8 mph67%30.30 "HgN/A
8:30 AM46 °FScattered clouds.5 mph76%30.30 "HgN/A
8:00 AM45 °FScattered clouds.3 mph76%30.33 "HgN/A
7:30 AM41 °FScattered clouds.5 mph87%30.33 "HgN/A
7:00 AM37 °FScattered clouds.5 mph93%30.30 "HgN/A
5:00 AM36 °FClear.No wind87%30.30 "HgN/A
4:30 AM34 °FClear.1 mph93%30.30 "HgN/A
4:00 AM36 °FClear.1 mph93%30.30 "HgN/A
3:30 AM36 °FClear.No wind93%30.30 "HgN/A
3:00 AM37 °FClear.5 mph93%30.30 "HgN/A
Weather by CustomWeather, © 2014

See weather overviewHow to use our weather pages